Portada
METAR-TAF:

METAR-TAF

Aeroports :

Berlin, Nova Hampshire, Estats Units d'Amèrica

latitud: 44-34-34N, longitud: 071-10-43W, altitud: 353 m

Observació

L'informe es va fer fa 21 minuts, a les 20:52 UTC
Vent 3 kt amb direcció variable
Temperatura -9°C
Humitat 62%
Pressió 1023 hPa
Visibilitat: 16.1 km
Escasses núvols a una alçada de 1700 ft

METAR: KBML 132052Z AUTO VRB03KT 10SM FEW017 M09/M15 A3021 RMK AO2 SLP258 T10941150 53029

Hora: 16:13 (21:13 UTC)


TAF: manca

Observacions i pronòstics meteorològics de més de 4000 aeroports (METAR i TAF).

Les estacions disponibles són els punts grocs i vermells al mapa.

Posi el ratolí al punt desitjat per veure el nom de l'estació.

Feu clic per veure les observacions i els pronòstics meteorològics.

Per canviar el mapa: feu clic els botons verds amb una creu de color negre per apropar; al botó verd amb un guió per allunyar la imatge; o en les fletxes verdes per a mapes adjacents.


METAR-TAF: